Regional Weather Roundup
Issued by NWS

Current Version | Previous Version | Graphics & Text | Print | Product List | Glossary On
Versions: 1 2 3 4 5 6 7 8 9 10 11 12 13 14 15 16 17 18 19 20 21 22 23 24 25 26 27 28 29 30 31 32 33 34 35 36 37 38 39 40 41 42 43 44 45 46 47 48 49 50
000
ASHW40 PHFO 262244
RWRHI

WEATHER ROUNDUP FOR HAWAII
NATIONAL WEATHER SERVICE HONOLULU HI
1200 PM HST TUE SEP 26 2017

THIS IS AN AUTOMATED REPORT THAT HAS NOT BEEN QUALITY CONTROLLED.

NOTE..."FAIR" INDICATES FEW OR NO CLOUDS BELOW 12,000 FEET WITH NO
SIGNIFICANT WEATHER AND/OR OBSTRUCTIONS TO VISIBILITY.

* - THESE SITES REPORT LIMITED FIELDS
# - BUOY DATA PROVIDED BY PACIFIC ISLANDS OCEAN OBSERVING SYSTEM.

HIZ001>004-262300-
KAUAI-NIIHAU-

CITY           SKY/WX    TMP DP  RH WIND       PRES   REMARKS
LIHUE APT      LGT RAIN  82  72  71 NE10      30.00F
PORT ALLEN*      N/A     88 N/A N/A E17G24      N/A
POIPU*           N/A     86 N/A N/A E10G20      N/A
PRINCEVILLE*     N/A     81 N/A N/A NE8G14      N/A
KOKOLE POINT*  NOT AVBL
MOLOAA DAIRY*    N/A     90  72  55 NE3G12      N/A  HX  96
WAIMEA HTS*      N/A     93  70  46 W9G15       N/A  HX  99
PUU OPAE*        N/A     81  68  65 W7G14       N/A
PUU LUA*       NOT AVBL
MAKAHA RIDGE*    N/A     81  64  57 SW3         N/A
$$

HIZ005>011-262300-
OAHU-

CITY           SKY/WX    TMP DP  RH WIND       PRES   REMARKS
HONOLULU       MOSUNNY   87  65  47 NE13G21   29.95F
KALAELOA       PTSUNNY   86  69  56 VRB7G16   29.97F HX  90
KANEOHE MCB    MOSUNNY   84  70  62 NE8       29.95
WHEELER FIELD  PTSUNNY   83  66  56 NE6       29.97F
BELLOWS*         N/A    N/A N/A N/A NE13        N/A
KAHUKU*          N/A    N/A N/A N/A NE6G14      N/A
WHEELER*         N/A    N/A N/A N/A NE8         N/A
WAIANAE HARBOR   N/A    N/A N/A N/A W8          N/A
DILLINGHAM*      N/A     70  54  56 S3G16       N/A
KAHUKU TRN*      N/A     72  57  60 W6G17       N/A
KAWAILOA*        N/A     79  66  65 E10         N/A
KII*             N/A     81  72  74 E10G18      N/A
MAKUA RANGE*     N/A     73  57  56 NE9G17      N/A
OAHU FOREST NW   N/A     79  64  61 SE12G18     N/A
SCHOFIELD BRK*   N/A     64  46  52 MISG        N/A
SCHOFIELD S*   NOT AVBL
WAIANAE VLY*     N/A     88  68  51 S8G14       N/A  HX  91
KUAOKALA*        N/A     79  68  69 VRB17G25    N/A
HONOULIUULI*   NOT AVBL
MOKUOLOE IS*   NOT AVBL
PALEHUA*         N/A     81  63  54 NE5G14      N/A
WAIAWA PHB*    NOT AVBL
$$

HIZ012>013-262300-
MOLOKAI-

CITY           SKY/WX    TMP DP  RH WIND       PRES   REMARKS
MOLOKAI AIRPT  SUNNY     85  68  56 NE14G24   29.98F
KALAUPAPA      NOT AVBL
MAKAPULAPAI*     N/A     88  72  58 E12         N/A  HX  94
MOLOKAI 1*       N/A     64  50  59 NE3G13      N/A
PUU ALII*        N/A     67  64  90 N1G7        N/A
$$

HIZ016-262300-
KAHOOLAWE-

CITY           SKY/WX    TMP DP  RH WIND       PRES   REMARKS
KAHOOLAWE*     NOT AVBL
HAKIOAWA*        N/A     85  69  58 MISG      30.38
HONOKANAIA*      N/A     85  67  54 E13G22    29.91F
KANELOA*         N/A     81  68  65 NE9G18    30.05F
KEALIALALO*    NOT AVBL
LUA MAKIKA*    NOT AVBL
$$

HIZ014>015-262300-
LANAI-

CITY           SKY/WX    TMP DP  RH WIND       PRES   REMARKS
LANAI CITY     CLOUDY    77  66  69 W7        30.01F
LANAI 1*         N/A    N/A N/A N/A MISG        N/A
$$

HIZ017>028-262300-
MAUI-

CITY           SKY/WX    TMP DP  RH WIND       PRES   REMARKS
KAHULUI        MOSUNNY   86  70  58 NE23      29.96F HX  90
KAPALUA-W MAUI MOSUNNY   88  64  45 NE17      29.96
HANA AIRPORT   NOT AVBL
HANA*          NOT AVBL
HALEAKALA SUMM   N/A     59  50  72 S3G26       N/A
MAALAEA BAY*     N/A     86 N/A N/A N17G25      N/A
HALEAKALA*     NOT AVBL
KAUPO GAP*     NOT AVBL
KULA 1*          N/A     61  58  91 W3G9        N/A
$$

HIZ023>026-262300-
BIG ISLAND OF HAWAII COAST AND LOWER SLOPES-

CITY           SKY/WX    TMP DP  RH WIND       PRES   REMARKS
KAILUA KONA    MOSUNNY   84  67  56 SW9       29.92F
HILO           MOSUNNY   84  69  60 NE12      29.96F
HONOKAA*         N/A     81 N/A N/A VRB1        N/A
KAWAIHAE MWT*    N/A     84 N/A N/A W7          N/A
KAWAIHAE*        N/A     82 N/A N/A W8        29.91F
SOUTH POINT*     N/A     79 N/A N/A NE13G20     N/A
UPOLU AIRPORT* NOT AVBL
KAMUELA*       NOT AVBL
HAKALAU*         N/A     67  56  67 E6G12       N/A
KALOKO-HONOKO*   N/A     86  68  54 W8        29.91F
PALI 2*          N/A     77  64  65 N6G17       N/A
KEALAKOMO*       N/A     84  68  58 E22G30      N/A
KAUPULEHU*       N/A     88  64  45 SW12G18     N/A
KAPAPALA*        N/A     79  70  74 S3G12       N/A
LOWER KAHUKU*    N/A     84  81  89 S2          N/A  HX  98
PUHE CS*         N/A     86  66  51 W3          N/A
PUHO CS*         N/A     86  68  54 SW3G10      N/A
PTA KEAMUKU*     N/A     77  59  53 N16G26      N/A
WAIKOLOA*        N/A     86  64  48 W9G17       N/A
$$

HIZ027>028-262300-
BIG ISLAND OF HAWAII INTERIOR AND SUMMMITS-

CITY           SKY/WX    TMP DP  RH WIND       PRES   REMARKS
BRADSHAW FIELD SUNNY     74  48  40 W9        30.29F
MK VISITOR CEN   N/A     57  48  72 W9          N/A
MAUNA KEA*       N/A     48  32  53 NE16        N/A
MAUNA LOA*       N/A     54  34  47 MISG        N/A
MAUNA LOA 1*   NOT AVBL
PTA KIPUKA*      N/A     73  57  56 S7G14       N/A
PTA RANGE 17*    N/A     72  57  60 E12G21      N/A
PTA WEST*        N/A     75  59  57 NW12G22     N/A
NENE CABIN*      N/A     66  54  63 SE6G14      N/A
AHUMOA*          N/A     66  56  70 N9G16       N/A
PTA PORTABLE*  NOT AVBL
PUU MALI*        N/A     63 N/A N/A NE12G21     N/A
$$

HIC003-262300-
NORTHWEST ISLANDS-

CITY           SKY/WX    TMP DP  RH WIND       PRES   REMARKS
MIDWAY ISLAND  SUNNY     82  73  74 S5        30.04F
MIDWAY NOS*      N/A     82 N/A N/A MISG      30.02F
FRENCH FRIGATE NOT AVBL
$$

PHZ110>124-180-262300-
BUOY REPORTS

STATION/POSITION TIME  TEMP    WIND        PRES    WAVE   SWELL
                       AIR SEA DIR/SP/G            HT/PER HT/DIR
                 (UTC) (F)     (DEG/KT/KT) (MB)    (FT/S) (FT/D)
BUOY 51001       2220   80 82   50/  2/  6 1016.5
BUOY 51101       2150   80 83   50/  4/  6 1017.4F   4/10   3/320
BUOY 51100       NOT AVBL
BUOY 51002       2220   80 81   60/ 12/ 16 1013.0
BUOY 51003       2150   80 82   70/ 10/ 12 1014.3F   3/10   3/320
BUOY 51004       2150      81   40/ 14/ 16 1013.1F   6/ 8   5/ 70
WAIMEA BAY#      2202      80                N/A     3/10   2/330
MOKAPU POINT#    2204      81                N/A     3/ 8   2/ 70
LANAI#           NOT AVBL
BARBERS PT 2#    NOT AVBL
PAUWELA#         2209      81                N/A     4/ 7   2/ 50
HILO#            2227      81                N/A     4/ 8   2/ 60
KANEOHE BAY#     NOT AVBL
KANEOHE BAY 2#   NOT AVBL
HANALEI#         2222      81                N/A     4/10   2/330
KAHULUI HARBOR   2218           10/  9/ 12 1014.6
HONOLULU HARBOR  2206   84 81   50/  7/ 13 1015.0
PEARL HARBOR#    2130      82                N/A     2/13   2/180
KILO NALU        NOT AVBL
HILO HARBOR      2218           20/  7/ 11 1014.0
MOKUOLOE         2136   81 83   60/  9/ 11 1015.4F
NAWILIWILI       2206   80 82   40/ 10/ 13 1015.1
WHOTS BUOY       NOT AVBL
BUOY 51028       NOT AVBL
$$

......................KEY........................................
  SKY/WX - SKY CONDITIONS/PRESENT WEATHER
  TMP    - TEMPERATURE IN FAHRENHEIT
  DWPT   - DEWPOINT IN FAHRENHEIT
  RH     - RELATIVE HUMIDITY IN PERCENT
  WIND   - DIRECTION AND SPEED /MPH FOR ISLANDS...KTS FOR BUOYS/
  PRES   - MEAN SEA LEVEL PRESSURE IN INCHES OF HG
  VSB    - VISIBILITY IN MILES
  HX     - HEAT INDEX
  WCI    - WIND CHILL INDEX
  VRB    - VARIABLE WIND DIRECTION
  N/A    - NOT AVAILABLE



USA.gov is the U.S. government's official web portal to all federal, state and local government web resources and services.